Regional Weather Roundup
Issued by NWS

Home | Current Version | Previous Version | Text Only | Print | Product List | Glossary Off
Versions: 1 2 3 4 5 6 7 8 9 10 11 12 13 14 15 16 17 18 19 20 21 22 23 24 25 26 27 28 29 30 31 32 33 34 35 36 37 38 39 40 41 42 43 44 45 46 47 48 49 50

000
ASUS43 KMKX 032211
RWRWI

WISCONSIN REGIONAL WEATHER ROUNDUP
NATIONAL WEATHER SERVICE MILWAUKEE/SULLIVAN WI
500 PM CDT SUN MAY 03 2015

NOTE: "FAIR" INDICATES FEW OR NO CLOUDS BELOW 12,000 FEET WITH NO
SIGNIFICANT WEATHER AND/OR OBSTRUCTIONS TO VISIBILITY.

WIZ001-002-006>008-014>016-023>028-032300-
NORTHWEST WISCONSIN

CITY           SKY/WX    TMP DP  RH WIND       PRES   REMARKS
SUPERIOR ARPT  PTSUNNY   69  38  32 NW21G32   29.84R
ASHLAND        CLOUDY    74  45  35 W3        29.78R
HAYWARD        PTSUNNY   66  54  65 NE8       29.80R
SIREN          PTSUNNY   75  38  26 N22G30    29.80R
CUMBERLAND     CLOUDY    75  45  33 NW7       29.78S
RICE LAKE      MOSUNNY   80  47  31 CALM      29.78S
CHETEK         MOSUNNY   79  54  41 CALM      29.76S
LADYSMITH      MOSUNNY   79  50  35 SW3       29.78F
EAU CLAIRE     SUNNY     81  52  36 S8        29.74F HX  80
MENOMONIE      SUNNY     80  51  35 CALM      29.75F HX  80
NEW RICHMOND   SUNNY     80  47  32 NW5       29.75F
OSCEOLA        PTSUNNY   76  50  39 NW9       29.79S
$$

WIZ003>005-009-010-017-018-032300-
NORTH CENTRAL WISCONSIN

CITY           SKY/WX    TMP DP  RH WIND       PRES   REMARKS
MANITOWISH WTR PTSUNNY   74  48  39 W7        29.78R
ARBOR VITAE    MOSUNNY   77  47  35 NW6       29.78R
WOODRUFF       MOSUNNY   77  47  35 NW6       29.78R
RHINELANDER    MOSUNNY   78  50  37 W12G20    29.79S
EAGLE RIVER    PTSUNNY   76  43  31 SW12G17   29.78R
LAND O LAKES   PTSUNNY   79  42  26 SW9G16    29.78R
PHILLIPS       PTSUNNY   75  51  42 SW8       29.77R
TOMAHAWK       MOSUNNY   78  46  31 CALM      29.79S
MEDFORD        MOSUNNY   77  52  40 SW10      29.78F
MERRILL        MOSUNNY   80  53  39 W10G17    29.78S HX  80
$$

WIZ029-030-035-036-043>047-032300-
CENTRAL WISCONSIN

CITY           SKY/WX    TMP DP  RH WIND       PRES   REMARKS
WAUSAU         SUNNY     79  51  37 SW10      29.77F
MOSINEE        NOT AVBL
MARSHFIELD     PTSUNNY   81  52  36 W8        29.78F HX  80
STEVENS POINT  MOSUNNY   78  51  39 SW12G21   29.80F
WAUPACA        PTSUNNY   82  48  30 SW18G24   29.80S HX  81
WAUTOMA        MOSUNNY   79  52  38 SW16      29.82S
WISC RAPIDS    MOSUNNY   81  50  33 SW14G20   29.80F HX  80
CAMP DOUGLAS   MOSUNNY   78  54  42 SW9       29.80S
$$

WIZ011>013-019>022-031-037>040-048>050-032300-
NORTHEAST WISCONSIN

CITY           SKY/WX    TMP DP  RH WIND       PRES   REMARKS
ANTIGO         MOSUNNY   74  51  44 SW12      29.79F
SHAWANO        FAIR      81  50  34 SW8G17    29.79S HX  80
OCONTO         MOSUNNY   80  54  41 SW15      29.79S HX  80
STURGEON BAY   MOSUNNY   70  48  46 S16       29.84S
GREEN BAY      MOSUNNY   79  55  43 S16G31    29.81F
MANITOWOC      CLOUDY    65  48  54 S12       29.85F
APPLETON       PTSUNNY   77  52  41 SW21G28   29.83S
CLINTONVILLE   MOSUNNY   81  48  32 SW12      29.79F HX  80
OSHKOSH        PTSUNNY   77  55  46 S24G32    29.83S
$$

WIZ032>034-041-042-053>061-032300-
SOUTHWEST WISCONSIN

CITY           SKY/WX    TMP DP  RH WIND       PRES   REMARKS
LA CROSSE      PTSUNNY   85  53  33 S10       29.76F HX  83
SPARTA         PTSUNNY   81  50  34 S10       29.79F HX  80
VIROQUA        MOSUNNY   79  53  40 S12       29.82F
BOSCOBEL       SUNNY     78  58  49 VRB6      29.83F
PRAIRIE DU CHI SUNNY     79  54  41 S10       29.81S
PLATTEVILLE    SUNNY     71  57  60 S10G18    29.87S
$$

WIZ056-057-062-063-064-067-068-032300-
SOUTH CENTRAL WISCONSIN

CITY           SKY/WX    TMP DP  RH WIND       PRES   REMARKS
REEDSBURG      SUNNY     75  55  48 S14       29.84S
BARABOO/DELLS  NOT AVBL
LONE ROCK      MOSUNNY   76  56  49 S13       29.84F
MINERAL POINT  SUNNY     73  55  53 S15G21    29.87F
MADISON        PTSUNNY   72  54  53 S15       29.88S
MIDDLETON      MOSUNNY   74  52  45 SW16      29.88F
WATERTOWN      PTSUNNY   72  56  58 SW17G23   29.89S
MONROE         PTSUNNY   68  59  73 S18       29.90S
JANESVILLE     LGT RAIN  64  61  88 S15       29.91S
$$

WIZ051-052-058>065-066-070>072-032300-
SOUTHEAST WISCONSIN

CITY           SKY/WX    TMP DP  RH WIND       PRES   REMARKS
MILWAUKEE      CLOUDY    71  52  50 W8        29.91R
WAUKESHA       PTSUNNY   66  54  63 SW16G23   29.92S
MILWAUKEE/TIMM SUNNY     72  52  49 SW14      29.91S
RACINE         CLOUDY    73  51  46 SW8       29.92S
BURLINGTON     RAIN      62  56  82 SW13      29.93R
KENOSHA        CLOUDY    71  53  52 W7        29.91S
FOND DU LAC    PTSUNNY   76  52  43 SW23G31   29.85S
SHEBOYGAN      PTSUNNY   76  54  46 SW17      29.86S
WEST BEND      PTSUNNY   72  50  46 SW18G24   29.88S
JUNEAU         PTSUNNY   72  55  54 SW21G30   29.90S
$$

LSZ147-162-032300-
LAKE SUPERIOR

STATION/POSITION TIME  TEMP    WIND        PRES    WAVE
                       AIR SEA DIR/SP/G            HT/PER
                 (UTC) (F)     (DEG/KT/KT) (MB)    (FT/S)
W MID LAKE BUOY  2150   45 36  310/  6/ 10 1008.3R   1
DEVILS ISLAND    2200   62     300/ 21/ 22 1008.8R
PORT WING        2130          290/ 11/ 14 1008.8R
SAXON HARBOR     2100   59        CALM     1007.5
$$

LMZ867-665-643>646-032300-
LAKE MICHIGAN

STATION/POSITION TIME  TEMP    WIND        PRES    WAVE
                       AIR SEA DIR/SP/G            HT/PER
                 (UTC) (F)     (DEG/KT/KT) (MB)    (FT/S)
CHAMBERS ISLAND  2100   71     140/  7/ 16 1009.5F
NORTHPORT PIER   2200   60     160/  9/ 21 1009.5F
KEWAUNEE LAKESHO 2100   49     180/ 17/ 18 1010.0F
SHEBOYGAN LAKESH 2200   53     180/ 15/ 18 1011.5R
PORT WASHINGTON  2130          220/ 10/ 24 1012.2F
ATWATER BUOY     2100          230/ 12/ 14 1013.6R
MILWAUKEE LAKESH 2100   73     220/ 17/ 24   N/A
KENOSHA   LAKESH 2200   68     210/  4/  6 1012.5S
$$

TC  - TEMPERATURE IN CELSIUS
VSB - VISIBILITY IN STATUTE MILES
WCI - WIND CHILL INDEX
HX  - HEAT INDEX




USA.gov is the U.S. government's official web portal to all federal, state and local government web resources and services.